Year,Month,Day,Hour,Minute,Value (Times are PST for temperature in C)
2011,05,04,00,00,7.10
2011,05,04,00,01,7.10
2011,05,04,00,02,7.10
2011,05,04,00,03,7.10
2011,05,04,00,04,7.10
2011,05,04,00,05,7.10
2011,05,04,00,06,7.10
2011,05,04,00,07,7.10
2011,05,04,00,08,7.10
2011,05,04,00,09,7.10
2011,05,04,00,10,7.10
2011,05,04,00,11,7.10
2011,05,04,00,12,7.10
2011,05,04,00,13,7.10
2011,05,04,00,14,7.10
2011,05,04,00,15,7.10
2011,05,04,00,16,7.10
2011,05,04,00,17,7.10
2011,05,04,00,18,7.10
2011,05,04,00,19,7.10
2011,05,04,00,20,7.10
2011,05,04,00,21,7.10
2011,05,04,00,22,7.10
2011,05,04,00,23,7.10
2011,05,04,00,24,7.10
2011,05,04,00,25,7.10
2011,05,04,00,26,7.10
2011,05,04,00,27,7.10
2011,05,04,00,28,7.00
2011,05,04,00,29,7.00
2011,05,04,00,30,7.00
2011,05,04,00,31,7.00
2011,05,04,00,32,7.00
2011,05,04,00,33,7.00
2011,05,04,00,34,7.00
2011,05,04,00,35,7.00
2011,05,04,00,36,7.00
2011,05,04,00,37,7.00
2011,05,04,00,38,7.00
2011,05,04,00,39,7.00
2011,05,04,00,40,7.00
2011,05,04,00,41,7.00
2011,05,04,00,42,7.00
2011,05,04,00,43,7.00
2011,05,04,00,44,7.00
2011,05,04,00,45,7.00
2011,05,04,00,46,7.00
2011,05,04,00,47,7.00
2011,05,04,00,48,7.00
2011,05,04,00,49,7.00
2011,05,04,00,50,7.00
2011,05,04,00,51,7.00
2011,05,04,00,52,7.00
2011,05,04,00,53,7.00
2011,05,04,00,54,6.90
2011,05,04,00,55,6.90
2011,05,04,00,56,6.90
2011,05,04,00,57,6.90
2011,05,04,00,58,6.90
2011,05,04,00,59,7.00
2011,05,04,01,00,7.00
2011,05,04,01,01,7.00
2011,05,04,01,02,7.00
2011,05,04,01,03,7.00
2011,05,04,01,04,7.00
2011,05,04,01,05,7.00
2011,05,04,01,06,7.00
2011,05,04,01,07,7.00
2011,05,04,01,08,7.00
2011,05,04,01,09,6.90
2011,05,04,01,10,6.90
2011,05,04,01,11,6.90
2011,05,04,01,12,6.90
2011,05,04,01,13,6.90
2011,05,04,01,14,6.90
2011,05,04,01,15,6.90
2011,05,04,01,16,6.80
2011,05,04,01,17,6.80
2011,05,04,01,18,6.80
2011,05,04,01,19,6.80
2011,05,04,01,20,6.70
2011,05,04,01,21,6.70
2011,05,04,01,22,6.70
2011,05,04,01,23,6.60
2011,05,04,01,24,6.60
2011,05,04,01,25,6.60
2011,05,04,01,26,6.60
2011,05,04,01,27,6.50
2011,05,04,01,28,6.40
2011,05,04,01,29,6.40
2011,05,04,01,30,6.40
2011,05,04,01,31,6.40
2011,05,04,01,32,6.40
2011,05,04,01,33,6.30
2011,05,04,01,34,6.30
2011,05,04,01,35,6.30
2011,05,04,01,36,6.30
2011,05,04,01,37,6.20
2011,05,04,01,38,6.20
2011,05,04,01,39,6.20
2011,05,04,01,40,6.20
2011,05,04,01,41,6.20
2011,05,04,01,42,6.20
2011,05,04,01,43,6.20
2011,05,04,01,44,6.20
2011,05,04,01,45,6.20
2011,05,04,01,46,6.20
2011,05,04,01,47,6.20
2011,05,04,01,48,6.20
2011,05,04,01,49,6.20
2011,05,04,01,50,6.20
2011,05,04,01,51,6.20
2011,05,04,01,52,6.20
2011,05,04,01,53,6.20
2011,05,04,01,54,6.20
2011,05,04,01,55,6.20
2011,05,04,01,56,6.20
2011,05,04,01,57,6.20
2011,05,04,01,58,6.20
2011,05,04,01,59,6.10
2011,05,04,02,00,6.10
2011,05,04,02,01,6.00
2011,05,04,02,02,5.90
2011,05,04,02,03,5.80
2011,05,04,02,04,5.70
2011,05,04,02,05,5.70
2011,05,04,02,06,5.60
2011,05,04,02,07,5.60
2011,05,04,02,08,5.50
2011,05,04,02,09,5.40
2011,05,04,02,10,5.30
2011,05,04,02,11,5.30
2011,05,04,02,12,5.20
2011,05,04,02,13,5.10
2011,05,04,02,14,5.10
2011,05,04,02,15,5.10
2011,05,04,02,16,5.00
2011,05,04,02,17,4.90
2011,05,04,02,18,4.90
2011,05,04,02,19,4.90
2011,05,04,02,20,4.90
2011,05,04,02,21,4.80
2011,05,04,02,22,4.80
2011,05,04,02,23,4.80
2011,05,04,02,24,4.80
2011,05,04,02,25,4.70
2011,05,04,02,26,4.70
2011,05,04,02,27,4.70
2011,05,04,02,28,4.60
2011,05,04,02,29,4.60
2011,05,04,02,30,4.60
2011,05,04,02,31,4.60
2011,05,04,02,32,4.60
2011,05,04,02,33,4.60
2011,05,04,02,34,4.60
2011,05,04,02,35,4.60
2011,05,04,02,36,4.60
2011,05,04,02,37,4.60
2011,05,04,02,38,4.50
2011,05,04,02,39,4.50
2011,05,04,02,40,4.50
2011,05,04,02,41,4.50
2011,05,04,02,42,4.40
2011,05,04,02,43,4.40
2011,05,04,02,44,4.40
2011,05,04,02,45,4.40
2011,05,04,02,46,4.40
2011,05,04,02,47,4.30
2011,05,04,02,48,4.30
2011,05,04,02,49,4.30
2011,05,04,02,50,4.30
2011,05,04,02,51,4.20
2011,05,04,02,52,4.20
2011,05,04,02,53,4.20
2011,05,04,02,54,4.20
2011,05,04,02,55,4.20
2011,05,04,02,56,4.20
2011,05,04,02,57,4.20
2011,05,04,02,58,4.20
2011,05,04,02,59,4.20
2011,05,04,03,00,4.20
2011,05,04,03,01,4.20
2011,05,04,03,02,4.10
2011,05,04,03,03,4.10
2011,05,04,03,04,4.10
2011,05,04,03,05,4.10
2011,05,04,03,06,4.10
2011,05,04,03,07,4.10
2011,05,04,03,08,4.10
2011,05,04,03,09,4.00
2011,05,04,03,10,4.00
2011,05,04,03,11,4.00
2011,05,04,03,12,4.00
2011,05,04,03,13,4.00
2011,05,04,03,14,4.00
2011,05,04,03,15,4.00
2011,05,04,03,16,4.00
2011,05,04,03,17,4.00
2011,05,04,03,18,4.00
2011,05,04,03,19,4.00
2011,05,04,03,20,4.00
2011,05,04,03,21,4.00
2011,05,04,03,22,4.00
2011,05,04,03,23,4.00
2011,05,04,03,24,4.00
2011,05,04,05,05,2.70
2011,05,04,05,06,2.70
2011,05,04,05,07,2.70
2011,05,04,05,08,2.70
2011,05,04,05,09,2.70
2011,05,04,05,10,2.70
2011,05,04,05,11,2.70
2011,05,04,05,12,2.70
2011,05,04,05,13,2.60
2011,05,04,05,14,2.60
2011,05,04,05,15,2.60
2011,05,04,05,16,2.60
2011,05,04,05,17,2.60
2011,05,04,05,18,2.50
2011,05,04,05,19,2.50
2011,05,04,05,20,2.50
2011,05,04,05,21,2.50
2011,05,04,05,22,2.50
2011,05,04,05,23,2.50
2011,05,04,05,24,2.50
2011,05,04,05,25,2.50
2011,05,04,05,26,2.50
2011,05,04,05,27,2.50
2011,05,04,05,28,2.50
2011,05,04,05,29,2.50
2011,05,04,05,30,2.50
2011,05,04,05,31,2.50
2011,05,04,05,32,2.50
2011,05,04,05,33,2.50
2011,05,04,05,34,2.50
2011,05,04,05,35,2.40
2011,05,04,05,36,2.40
2011,05,04,05,37,2.40
2011,05,04,05,38,2.40
2011,05,04,05,39,2.40
2011,05,04,05,40,2.40
2011,05,04,05,41,2.40
2011,05,04,05,42,2.40
2011,05,04,05,43,2.40
2011,05,04,05,44,2.30
2011,05,04,05,45,2.30
2011,05,04,05,46,2.30
2011,05,04,05,47,2.30
2011,05,04,05,48,2.30
2011,05,04,05,49,2.30
2011,05,04,05,50,2.30
2011,05,04,05,51,2.30
2011,05,04,05,52,2.30
2011,05,04,05,53,2.30
2011,05,04,05,54,2.30
2011,05,04,05,55,2.30
2011,05,04,05,56,2.30
2011,05,04,05,57,2.30
2011,05,04,05,58,2.30
2011,05,04,05,59,2.40
2011,05,04,06,00,2.40
2011,05,04,06,01,2.40
2011,05,04,06,02,2.40
2011,05,04,06,03,2.40
2011,05,04,06,04,2.30
2011,05,04,06,05,2.30
2011,05,04,06,06,2.30
2011,05,04,06,07,2.30
2011,05,04,06,08,2.30
2011,05,04,06,09,2.30
2011,05,04,06,10,2.30
2011,05,04,06,11,2.30
2011,05,04,06,12,2.30
2011,05,04,06,13,2.30
2011,05,04,06,14,2.30
2011,05,04,06,15,2.30
2011,05,04,06,16,2.30
2011,05,04,06,17,2.30
2011,05,04,06,18,2.40
2011,05,04,06,19,2.40
2011,05,04,06,20,2.40
2011,05,04,06,21,2.40
2011,05,04,06,22,2.50
2011,05,04,06,23,2.50
2011,05,04,06,24,2.50
2011,05,04,06,25,2.50
2011,05,04,06,26,2.50
2011,05,04,06,27,2.60
2011,05,04,06,28,2.60
2011,05,04,06,29,2.70
2011,05,04,06,30,2.70
2011,05,04,06,31,2.70
2011,05,04,06,32,2.70
2011,05,04,06,33,2.70
2011,05,04,06,34,2.70
2011,05,04,06,35,2.80
2011,05,04,06,36,2.80
2011,05,04,06,37,2.80
2011,05,04,06,38,2.80
2011,05,04,06,39,2.90
2011,05,04,06,40,2.90
2011,05,04,06,41,2.90
2011,05,04,06,42,2.90
2011,05,04,06,43,3.00
2011,05,04,06,44,3.10
2011,05,04,06,45,3.10
2011,05,04,06,46,3.20
2011,05,04,06,47,3.20
2011,05,04,06,48,3.20
2011,05,04,06,49,3.20
2011,05,04,06,50,3.20
2011,05,04,06,51,3.30
2011,05,04,06,52,3.30
2011,05,04,06,53,3.30
2011,05,04,06,54,3.40
2011,05,04,06,55,3.40
2011,05,04,06,56,3.50
2011,05,04,06,57,3.50
2011,05,04,06,58,3.60
2011,05,04,06,59,3.60
2011,05,04,07,00,3.60
2011,05,04,07,01,3.60
2011,05,04,07,02,3.70
2011,05,04,07,03,3.80
2011,05,04,07,04,3.80
2011,05,04,07,05,3.90
2011,05,04,07,06,3.90
2011,05,04,07,07,3.90
2011,05,04,07,08,4.00
2011,05,04,07,09,4.00
2011,05,04,07,10,4.10
2011,05,04,07,11,4.10
2011,05,04,07,12,4.20
2011,05,04,07,13,4.20
2011,05,04,07,14,4.20
2011,05,04,07,15,4.20
2011,05,04,07,16,4.20
2011,05,04,07,17,4.20
2011,05,04,07,18,4.20
2011,05,04,07,19,4.20
2011,05,04,07,20,4.20
2011,05,04,07,21,4.20
2011,05,04,07,22,4.20
2011,05,04,07,23,4.30
2011,05,04,07,24,4.30
2011,05,04,07,25,4.30
2011,05,04,07,26,4.30
2011,05,04,07,27,4.30
2011,05,04,07,28,4.30
2011,05,04,07,29,4.30
2011,05,04,07,30,4.30
2011,05,04,07,31,4.30
2011,05,04,07,32,4.30
2011,05,04,07,33,4.40
2011,05,04,07,34,4.40
2011,05,04,07,35,4.40
2011,05,04,07,36,4.50
2011,05,04,07,37,4.50
2011,05,04,07,38,4.50
2011,05,04,07,39,4.50
2011,05,04,07,40,4.60
2011,05,04,07,41,4.60
2011,05,04,07,42,4.60
2011,05,04,07,43,4.70
2011,05,04,07,44,4.70
2011,05,04,07,45,4.80
2011,05,04,07,46,4.80
2011,05,04,07,47,4.90
2011,05,04,07,48,4.90
2011,05,04,07,49,4.90
2011,05,04,07,50,5.00
2011,05,04,07,51,5.10
2011,05,04,07,52,5.10
2011,05,04,07,53,5.10
2011,05,04,07,54,5.20
2011,05,04,07,55,5.20
2011,05,04,07,56,5.30
2011,05,04,07,57,5.30
2011,05,04,07,58,5.30
2011,05,04,07,59,5.40
2011,05,04,08,00,5.50
2011,05,04,08,01,5.60
2011,05,04,08,02,5.70
2011,05,04,08,03,5.80
2011,05,04,08,04,6.00
2011,05,04,08,05,6.10
2011,05,04,08,06,6.20
2011,05,04,08,07,6.30
2011,05,04,08,08,6.40
2011,05,04,08,09,6.60
2011,05,04,08,10,6.60
2011,05,04,08,11,6.70
2011,05,04,08,12,6.80
2011,05,04,08,13,6.90
2011,05,04,08,14,7.00
2011,05,04,08,15,7.10
2011,05,04,08,16,7.10
2011,05,04,08,17,7.20
2011,05,04,08,18,7.20
2011,05,04,08,19,7.30
2011,05,04,08,20,7.30
2011,05,04,08,21,7.30
2011,05,04,08,22,7.30
2011,05,04,08,23,7.40
2011,05,04,08,24,7.40
2011,05,04,08,25,7.50
2011,05,04,08,26,7.50
2011,05,04,08,27,7.60
2011,05,04,08,28,7.60
2011,05,04,08,29,7.70
2011,05,04,08,30,7.70
2011,05,04,08,31,7.80
2011,05,04,08,32,7.80
2011,05,04,08,33,7.90
2011,05,04,08,34,8.00
2011,05,04,08,35,8.00
2011,05,04,08,36,8.10
2011,05,04,08,37,8.20
2011,05,04,08,38,8.30
2011,05,04,08,39,8.40
2011,05,04,08,40,8.50
2011,05,04,08,41,8.60
2011,05,04,08,42,8.70
2011,05,04,08,43,8.90
2011,05,04,08,44,8.90
2011,05,04,08,45,9.00
2011,05,04,08,46,9.10
2011,05,04,08,47,9.20
2011,05,04,08,48,9.20
2011,05,04,08,49,9.20
2011,05,04,08,50,9.20
2011,05,04,08,51,9.20
2011,05,04,08,52,9.20
2011,05,04,08,53,9.30
2011,05,04,08,54,9.40
2011,05,04,08,55,9.40
2011,05,04,08,56,9.50
2011,05,04,08,57,9.50
2011,05,04,08,58,9.50
2011,05,04,08,59,9.40
2011,05,04,09,00,9.40
2011,05,04,09,01,9.30
2011,05,04,09,02,9.20
2011,05,04,09,03,9.20
2011,05,04,09,04,9.20
2011,05,04,09,05,9.20
2011,05,04,09,06,9.30
2011,05,04,09,07,9.30
2011,05,04,09,08,9.40
2011,05,04,09,09,9.40
2011,05,04,09,10,9.50
2011,05,04,09,11,9.60
2011,05,04,09,12,9.70
2011,05,04,09,13,9.70
2011,05,04,09,14,9.70
2011,05,04,09,15,9.70
2011,05,04,09,16,9.70
2011,05,04,09,17,9.70
2011,05,04,09,18,9.80
2011,05,04,09,19,9.90
2011,05,04,09,20,9.90
2011,05,04,09,21,9.90
2011,05,04,09,22,10.00
2011,05,04,09,23,10.10
2011,05,04,09,24,10.10
2011,05,04,09,25,10.10
2011,05,04,09,26,10.10
2011,05,04,09,27,10.10
2011,05,04,09,28,10.10
2011,05,04,09,29,10.20
2011,05,04,09,30,10.30
2011,05,04,09,31,10.40
2011,05,04,09,32,10.40
2011,05,04,09,33,10.50
2011,05,04,09,34,10.60
2011,05,04,09,35,10.60
2011,05,04,09,36,10.70
2011,05,04,09,37,10.70
2011,05,04,09,38,10.70
2011,05,04,09,39,10.70
2011,05,04,09,40,10.70
2011,05,04,09,41,10.70
2011,05,04,09,42,10.70
2011,05,04,09,43,10.70
2011,05,04,09,44,10.80
2011,05,04,09,45,10.80
2011,05,04,09,46,10.90
2011,05,04,09,47,10.90
2011,05,04,09,48,10.90
2011,05,04,09,49,10.90
2011,05,04,09,50,11.10
2011,05,04,09,51,11.10
2011,05,04,09,52,11.20
2011,05,04,09,53,11.30
2011,05,04,09,54,11.30
2011,05,04,09,55,11.40
2011,05,04,09,56,11.40
2011,05,04,09,57,11.40
2011,05,04,09,58,11.40
2011,05,04,09,59,11.30
2011,05,04,10,00,11.30
2011,05,04,10,01,11.20
2011,05,04,10,02,11.10
2011,05,04,10,03,11.00
2011,05,04,10,04,10.80
2011,05,04,10,05,10.70
2011,05,04,10,06,10.60
2011,05,04,10,07,10.60
2011,05,04,10,08,10.50
2011,05,04,10,09,10.40
2011,05,04,10,10,10.30
2011,05,04,10,11,10.10
2011,05,04,10,12,10.00
2011,05,04,10,13,9.90
2011,05,04,10,14,9.90
2011,05,04,10,15,9.80
2011,05,04,10,16,9.80
2011,05,04,10,17,9.70
2011,05,04,10,18,9.80
2011,05,04,10,19,9.80
2011,05,04,10,20,9.80
2011,05,04,10,21,9.70
2011,05,04,10,22,9.70
2011,05,04,10,23,9.70
2011,05,04,10,24,9.70
2011,05,04,10,25,9.70
2011,05,04,10,26,9.70
2011,05,04,10,27,9.50
2011,05,04,10,28,9.40
2011,05,04,10,29,9.30
2011,05,04,10,30,9.30
2011,05,04,10,31,9.20
2011,05,04,10,32,9.20
2011,05,04,10,33,9.40
2011,05,04,10,34,9.40
2011,05,04,10,35,9.30
2011,05,04,10,36,9.30
2011,05,04,10,37,9.30
2011,05,04,10,38,9.30
2011,05,04,10,39,9.40
2011,05,04,10,40,9.40
2011,05,04,10,41,9.50
2011,05,04,10,42,9.60
2011,05,04,10,43,9.60
2011,05,04,10,44,9.70
2011,05,04,10,45,9.70
2011,05,04,10,46,9.80
2011,05,04,10,47,9.80
2011,05,04,10,48,9.80
2011,05,04,10,49,9.80
2011,05,04,10,50,9.80
2011,05,04,10,51,9.90
2011,05,04,10,52,9.90
2011,05,04,10,53,9.90
2011,05,04,10,54,9.90
2011,05,04,10,55,9.90
2011,05,04,10,56,9.90
2011,05,04,10,57,9.90
2011,05,04,10,58,9.90
2011,05,04,10,59,9.90
2011,05,04,11,00,9.90
2011,05,04,11,01,9.90
2011,05,04,11,02,9.90
2011,05,04,11,03,10.00
2011,05,04,11,04,9.90
2011,05,04,11,05,9.90
2011,05,04,11,06,10.00
2011,05,04,11,07,10.10
2011,05,04,11,08,10.20
2011,05,04,11,09,10.20
2011,05,04,11,10,10.30
2011,05,04,11,11,10.40
2011,05,04,11,12,10.50
2011,05,04,11,13,10.60
2011,05,04,11,14,10.80
2011,05,04,11,15,10.90
2011,05,04,11,16,11.10
2011,05,04,11,17,11.10
2011,05,04,11,18,11.20
2011,05,04,11,19,11.20
2011,05,04,11,20,11.20
2011,05,04,11,21,11.20
2011,05,04,11,22,11.30
2011,05,04,11,23,11.30
2011,05,04,11,24,11.30
2011,05,04,11,25,11.30
2011,05,04,11,26,11.40
2011,05,04,11,27,11.40
2011,05,04,11,28,11.30
2011,05,04,11,29,11.50
2011,05,04,11,30,11.50
2011,05,04,11,31,11.40
2011,05,04,11,32,11.40
2011,05,04,11,33,11.60
2011,05,04,11,34,11.60
2011,05,04,11,35,11.60
2011,05,04,11,36,11.50
2011,05,04,11,37,11.40
2011,05,04,11,38,11.40
2011,05,04,11,39,11.40
2011,05,04,11,40,11.40
2011,05,04,11,41,11.40
2011,05,04,11,42,11.40
2011,05,04,11,43,11.40
2011,05,04,11,44,11.50
2011,05,04,11,45,11.60
2011,05,04,11,46,11.70
2011,05,04,11,47,11.80
2011,05,04,11,48,11.70
2011,05,04,11,49,11.70
2011,05,04,11,50,11.60
2011,05,04,11,51,11.70
2011,05,04,11,52,11.80
2011,05,04,11,53,11.80
2011,05,04,11,54,11.80
2011,05,04,11,55,11.90
2011,05,04,11,56,11.90
2011,05,04,11,57,11.90
2011,05,04,11,58,11.80
2011,05,04,11,59,11.80
2011,05,04,12,00,11.90
2011,05,04,12,01,12.00
2011,05,04,12,02,12.00
2011,05,04,12,03,12.10
2011,05,04,12,04,12.10
2011,05,04,12,05,12.00
2011,05,04,12,06,11.70
2011,05,04,12,07,11.40
2011,05,04,12,08,11.20
2011,05,04,12,09,11.10
2011,05,04,12,10,11.10
2011,05,04,12,11,11.00
2011,05,04,12,12,10.90
2011,05,04,12,13,10.80
2011,05,04,12,14,10.80
2011,05,04,12,15,10.60
2011,05,04,12,16,10.70
2011,05,04,12,17,10.70
2011,05,04,12,18,10.60
2011,05,04,12,19,10.60
2011,05,04,12,20,10.60
2011,05,04,12,21,10.60
2011,05,04,12,22,10.40
2011,05,04,12,23,10.40
2011,05,04,12,24,10.50
2011,05,04,12,25,10.60
2011,05,04,12,26,10.70
2011,05,04,12,27,10.80
2011,05,04,12,28,10.90
2011,05,04,12,29,10.90
2011,05,04,12,30,10.90
2011,05,04,12,31,11.10
2011,05,04,12,32,11.30
2011,05,04,12,33,11.50
2011,05,04,12,34,11.60
2011,05,04,12,35,11.60
2011,05,04,12,36,11.60
2011,05,04,12,37,11.60
2011,05,04,12,38,11.60
2011,05,04,12,39,11.60
2011,05,04,12,40,11.60
2011,05,04,12,41,11.60
2011,05,04,12,42,11.60
2011,05,04,12,43,11.60
2011,05,04,13,17,11.20
2011,05,04,13,18,11.20
2011,05,04,13,19,11.20
2011,05,04,13,20,11.10
2011,05,04,13,21,11.00
2011,05,04,13,22,10.90
2011,05,04,13,23,10.90
2011,05,04,13,24,10.90
2011,05,04,13,25,11.00
2011,05,04,13,26,11.20
2011,05,04,13,27,11.40
2011,05,04,13,28,11.40
2011,05,04,13,29,11.40
2011,05,04,13,30,11.60
2011,05,04,13,31,11.60
2011,05,04,13,32,11.70
2011,05,04,13,33,11.70
2011,05,04,13,34,11.80
2011,05,04,13,35,11.80
2011,05,04,13,36,11.80
2011,05,04,13,37,11.80
2011,05,04,13,38,11.60
2011,05,04,13,39,11.50
2011,05,04,13,40,11.40
2011,05,04,13,41,11.40
2011,05,04,13,42,11.60
2011,05,04,13,43,11.70
2011,05,04,13,44,11.70
2011,05,04,13,45,11.70
2011,05,04,13,46,11.80
2011,05,04,13,47,11.80
2011,05,04,13,48,11.80
2011,05,04,13,49,11.80
2011,05,04,13,50,11.80
2011,05,04,13,51,11.90
2011,05,04,13,52,12.00
2011,05,04,13,53,12.00
2011,05,04,13,54,12.00
2011,05,04,13,55,12.10
2011,05,04,13,56,12.20
2011,05,04,13,57,12.40
2011,05,04,13,58,12.60
2011,05,04,13,59,12.70
2011,05,04,14,00,12.80
2011,05,04,14,01,12.80
2011,05,04,14,02,12.70
2011,05,04,14,03,12.60
2011,05,04,14,04,12.60
2011,05,04,14,05,12.60
2011,05,04,14,06,12.80
2011,05,04,14,07,12.90
2011,05,04,14,08,12.90
2011,05,04,14,09,12.80
2011,05,04,14,10,12.70
2011,05,04,14,11,12.80
2011,05,04,14,12,12.80
2011,05,04,14,13,12.80
2011,05,04,14,14,12.90
2011,05,04,14,15,13.00
2011,05,04,14,16,13.10
2011,05,04,14,17,13.30
2011,05,04,14,18,13.30
2011,05,04,14,19,13.20
2011,05,04,14,20,13.20
2011,05,04,14,21,13.20
2011,05,04,14,22,13.20
2011,05,04,14,23,13.10
2011,05,04,14,24,13.10
2011,05,04,14,25,13.10
2011,05,04,14,26,13.00
2011,05,04,14,27,12.80
2011,05,04,14,28,12.70
2011,05,04,14,29,12.60
2011,05,04,14,30,12.50
2011,05,04,14,31,12.30
2011,05,04,14,32,12.20
2011,05,04,14,33,12.00
2011,05,04,14,34,11.90
2011,05,04,14,35,12.00
2011,05,04,14,36,12.10
2011,05,04,14,37,12.20
2011,05,04,14,38,12.30
2011,05,04,14,39,12.40
2011,05,04,14,40,12.50
2011,05,04,14,41,12.50
2011,05,04,14,42,12.60
2011,05,04,14,43,12.70
2011,05,04,14,44,12.70
2011,05,04,14,45,12.80
2011,05,04,14,46,12.90
2011,05,04,14,47,12.90
2011,05,04,14,48,12.90
2011,05,04,14,49,13.00
2011,05,04,14,50,13.00
2011,05,04,14,51,13.10
2011,05,04,14,52,13.20
2011,05,04,14,53,13.30
2011,05,04,14,54,13.30
2011,05,04,14,55,13.30
2011,05,04,14,56,13.50
2011,05,04,14,57,13.60
2011,05,04,14,58,13.60
2011,05,04,14,59,13.70
2011,05,04,15,00,13.70
2011,05,04,15,01,13.60
2011,05,04,15,02,13.40
2011,05,04,15,03,13.30
2011,05,04,15,04,13.30
2011,05,04,15,05,13.30
2011,05,04,15,06,13.30
2011,05,04,15,07,13.20
2011,05,04,15,08,13.10
2011,05,04,15,09,13.00
2011,05,04,15,10,12.90
2011,05,04,15,11,12.90
2011,05,04,15,12,12.90
2011,05,04,15,13,12.90
2011,05,04,15,14,13.00
2011,05,04,15,15,13.10
2011,05,04,15,16,13.10
2011,05,04,15,17,13.20
2011,05,04,15,18,13.30
2011,05,04,15,19,13.30
2011,05,04,15,20,13.30
2011,05,04,15,21,13.40
2011,05,04,15,22,13.40
2011,05,04,15,23,13.30
2011,05,04,15,24,13.20
2011,05,04,15,25,13.20
2011,05,04,15,26,13.20
2011,05,04,15,27,13.10
2011,05,04,15,28,13.00
2011,05,04,15,29,13.00
2011,05,04,15,30,13.00
2011,05,04,15,31,13.00
2011,05,04,15,32,13.10
2011,05,04,15,33,13.10
2011,05,04,15,34,13.20
2011,05,04,15,35,13.30
2011,05,04,15,36,13.30
2011,05,04,15,37,13.30
2011,05,04,15,38,13.40
2011,05,04,15,39,13.50
2011,05,04,15,40,13.60
2011,05,04,15,41,13.70
2011,05,04,15,42,13.70
2011,05,04,15,43,13.80
2011,05,04,15,44,13.90
2011,05,04,15,45,14.00
2011,05,04,15,46,14.00
2011,05,04,15,47,14.20
2011,05,04,15,48,14.20
2011,05,04,15,49,14.20
2011,05,04,15,50,14.20
2011,05,04,15,51,14.20
2011,05,04,15,52,14.20
2011,05,04,15,53,14.20
2011,05,04,15,54,14.10
2011,05,04,15,55,13.90
2011,05,04,15,56,13.70
2011,05,04,15,57,13.50
2011,05,04,15,58,13.50
2011,05,04,15,59,13.30
2011,05,04,16,00,13.30
2011,05,04,16,01,13.30
2011,05,04,16,02,13.30
2011,05,04,16,03,13.30
2011,05,04,16,04,13.30
2011,05,04,16,05,13.20
2011,05,04,16,06,13.10
2011,05,04,16,07,13.10
2011,05,04,16,08,13.10
2011,05,04,16,09,13.10
2011,05,04,16,10,12.90
2011,05,04,16,11,12.70
2011,05,04,16,12,12.60
2011,05,04,16,13,12.70
2011,05,04,16,14,12.60
2011,05,04,16,15,12.60
2011,05,04,16,16,12.70
2011,05,04,16,17,12.80
2011,05,04,16,18,12.80
2011,05,04,16,19,12.90
2011,05,04,16,20,13.00
2011,05,04,16,21,13.00
2011,05,04,16,22,13.10
2011,05,04,16,23,13.20
2011,05,04,16,24,13.20
2011,05,04,16,25,13.20
2011,05,04,16,26,13.10
2011,05,04,16,27,13.10
2011,05,04,16,28,13.10
2011,05,04,16,29,13.20
2011,05,04,16,30,13.10
2011,05,04,16,31,13.10
2011,05,04,16,32,13.00
2011,05,04,16,33,12.80
2011,05,04,16,34,12.50
2011,05,04,16,35,12.40
2011,05,04,16,36,12.30
2011,05,04,16,37,12.30
2011,05,04,16,38,12.20
2011,05,04,16,39,12.20
2011,05,04,16,40,12.30
2011,05,04,16,41,12.30
2011,05,04,16,42,12.30
2011,05,04,16,43,12.30
2011,05,04,16,44,12.40
2011,05,04,16,45,12.40
2011,05,04,16,46,12.30
2011,05,04,16,47,12.30
2011,05,04,16,48,12.30
2011,05,04,16,49,12.30
2011,05,04,16,50,12.30
2011,05,04,16,51,12.30
2011,05,04,16,52,12.30
2011,05,04,16,53,12.30
2011,05,04,16,54,12.30
2011,05,04,16,55,12.30
2011,05,04,16,56,12.30
2011,05,04,16,57,12.30
2011,05,04,16,58,12.30
2011,05,04,16,59,12.30
2011,05,04,17,00,12.20
2011,05,04,17,01,12.20
2011,05,04,17,02,12.10
2011,05,04,17,03,12.10
2011,05,04,17,04,12.10
2011,05,04,17,05,12.10
2011,05,04,17,06,12.10
2011,05,04,17,07,12.10
2011,05,04,17,08,12.00
2011,05,04,17,09,12.00
2011,05,04,17,10,12.00
2011,05,04,17,11,11.90
2011,05,04,17,12,11.90
2011,05,04,17,13,11.80
2011,05,04,17,14,11.80
2011,05,04,17,15,11.80
2011,05,04,17,16,11.80
2011,05,04,17,17,11.90
2011,05,04,17,18,11.90
2011,05,04,17,19,11.90
2011,05,04,17,20,11.90
2011,05,04,17,21,11.80
2011,05,04,17,22,11.90
2011,05,04,17,23,11.90
2011,05,04,17,24,12.00
2011,05,04,17,25,12.00
2011,05,04,17,26,12.00
2011,05,04,17,27,12.10
2011,05,04,17,28,12.10
2011,05,04,17,29,12.20
2011,05,04,17,30,12.20
2011,05,04,17,31,12.20
2011,05,04,17,32,12.20
2011,05,04,17,33,12.20
2011,05,04,17,34,12.20
2011,05,04,17,35,12.20
2011,05,04,17,36,12.20
2011,05,04,17,37,12.20
2011,05,04,17,38,12.20
2011,05,04,17,39,12.30
2011,05,04,17,40,12.20
2011,05,04,17,41,12.20
2011,05,04,17,42,12.20
2011,05,04,17,43,12.20
2011,05,04,17,44,12.30
2011,05,04,17,45,12.30
2011,05,04,17,46,12.20
2011,05,04,17,47,12.20
2011,05,04,17,48,12.20
2011,05,04,17,49,12.20
2011,05,04,17,50,12.20
2011,05,04,17,51,12.20
2011,05,04,17,52,12.30
2011,05,04,17,53,12.30
2011,05,04,17,54,12.30
2011,05,04,17,55,12.30
2011,05,04,17,56,12.30
2011,05,04,17,57,12.20
2011,05,04,17,58,12.20
2011,05,04,17,59,12.20
2011,05,04,18,00,12.20
2011,05,04,18,01,12.30
2011,05,04,18,02,12.20
2011,05,04,18,03,12.20
2011,05,04,18,04,12.10
2011,05,04,18,05,12.00
2011,05,04,18,06,11.90
2011,05,04,18,07,11.80
2011,05,04,18,08,11.80
2011,05,04,18,09,11.80
2011,05,04,18,10,11.80
2011,05,04,18,11,11.80
2011,05,04,18,12,11.90
2011,05,04,18,13,11.90
2011,05,04,18,14,12.00
2011,05,04,18,15,12.00
2011,05,04,18,16,12.00
2011,05,04,18,17,11.90
2011,05,04,18,18,11.90
2011,05,04,18,19,11.90
2011,05,04,18,20,11.90
2011,05,04,18,21,11.90
2011,05,04,18,22,11.90
2011,05,04,18,23,11.90
2011,05,04,18,24,12.00
2011,05,04,18,25,12.00
2011,05,04,18,26,12.00
2011,05,04,18,27,12.00
2011,05,04,18,28,12.00
2011,05,04,18,29,12.00
2011,05,04,18,30,12.00
2011,05,04,18,31,12.00
2011,05,04,18,32,12.00
2011,05,04,18,33,12.10
2011,05,04,18,34,12.10
2011,05,04,18,35,12.10
2011,05,04,18,36,12.10
2011,05,04,18,37,12.10
2011,05,04,18,38,12.10
2011,05,04,18,39,12.10
2011,05,04,18,40,12.10
2011,05,04,18,41,12.10
2011,05,04,18,42,12.10
2011,05,04,18,43,12.20
2011,05,04,18,44,12.20
2011,05,04,18,45,12.20
2011,05,04,18,46,12.20
2011,05,04,18,47,12.20
2011,05,04,18,48,12.20
2011,05,04,18,49,12.20
2011,05,04,18,50,12.20
2011,05,04,18,51,12.10
2011,05,04,18,52,12.20
2011,05,04,18,53,12.20
2011,05,04,18,54,12.30
2011,05,04,18,55,12.30
2011,05,04,18,56,12.30
2011,05,04,18,57,12.30
2011,05,04,18,58,12.30
2011,05,04,18,59,12.30
2011,05,04,19,00,12.30
2011,05,04,19,01,12.30
2011,05,04,19,02,12.20
2011,05,04,19,03,12.20
2011,05,04,19,04,12.30
2011,05,04,19,05,12.30
2011,05,04,19,06,12.30
2011,05,04,19,07,12.30
2011,05,04,19,08,12.30
2011,05,04,19,09,12.20
2011,05,04,19,10,12.20
2011,05,04,19,11,12.20
2011,05,04,19,12,12.20
2011,05,04,19,13,12.20
2011,05,04,19,14,12.20
2011,05,04,19,15,12.20
2011,05,04,19,16,12.20
2011,05,04,19,17,12.30
2011,05,04,19,18,12.30
2011,05,04,19,19,12.30
2011,05,04,19,20,12.30
2011,05,04,19,21,12.30
2011,05,04,19,22,12.30
2011,05,04,19,23,12.30
2011,05,04,19,24,12.30
2011,05,04,19,25,12.30
2011,05,04,19,26,12.30
2011,05,04,19,27,12.30
2011,05,04,19,28,12.30
2011,05,04,19,29,12.30
2011,05,04,19,30,12.30
2011,05,04,19,31,12.20
2011,05,04,19,32,12.20
2011,05,04,19,33,12.20
2011,05,04,19,34,12.20
2011,05,04,19,35,12.20
2011,05,04,19,36,12.20
2011,05,04,19,37,12.20
2011,05,04,19,38,12.20
2011,05,04,19,39,12.10
2011,05,04,19,40,12.10
2011,05,04,19,41,12.10
2011,05,04,19,42,12.10
2011,05,04,19,43,12.10
2011,05,04,19,44,12.10
2011,05,04,19,45,12.10
2011,05,04,19,46,12.10
2011,05,04,19,47,12.10
2011,05,04,19,48,12.20
2011,05,04,19,49,12.20
2011,05,04,19,50,12.20
2011,05,04,19,51,12.20
2011,05,04,19,52,12.20
2011,05,04,19,53,12.20
2011,05,04,19,54,12.20